Address 0xdb293a08a4f9b5a1ac8cf51f6f76d9b6314851e4

Txn Hash
Block
From
To
Value [Txn Fee]
0xbc52514eba619b24fd731d823b975d432f7adc7b1098e58d179e63acffed588b87503502021-05-11 14:02:2134 days 2 hrs ago0xdb293a08a4f9b5a1ac8cf51f6f76d9b6314851e4OUT 0x705ff790aadad86b093dde0129e6989d3354f4490 BNB0.00046235
0x8c8695a61271a6589ee9ce58ef79eaac6d0c40d579d7f2cdcc19e7f74dfab45087503192021-05-11 14:00:4834 days 2 hrs ago0xdb293a08a4f9b5a1ac8cf51f6f76d9b6314851e4OUT 0x705ff790aadad86b093dde0129e6989d3354f4490 BNB0.00100083
0x5dce8dab60fae6ccb08df128e27b66f57b04bad571dfd79da465643440a709eb87503102021-05-11 14:00:2134 days 2 hrs ago0xdb293a08a4f9b5a1ac8cf51f6f76d9b6314851e4OUT 0x705ff790aadad86b093dde0129e6989d3354f4490 BNB0.00050301
0xfd65801c24f783ba7ad8a8978cd11f774bd1b4d7484de6ab1b88071fbf268f4287502732021-05-11 13:58:3034 days 2 hrs ago0xdb293a08a4f9b5a1ac8cf51f6f76d9b6314851e4OUT 0x705ff790aadad86b093dde0129e6989d3354f4490 BNB0.00115083
0x955704ec9b77510569a441882b8b66c4156a5462b6983be47c8fad968cd636e687502572021-05-11 13:57:4234 days 2 hrs ago0xdb293a08a4f9b5a1ac8cf51f6f76d9b6314851e4OUT 0x72d46f6d757247669564af7328348d9b8c65aafd0.0172 BNB0.02210241
0xbcca4208fe21ad721e9060c84257ec635ad3529dcac5b7dd3e86c18582d5704687251782021-05-10 17:03:4534 days 23 hrs ago0xdb293a08a4f9b5a1ac8cf51f6f76d9b6314851e4OUT 0xe686e7aaccd47c951f02c6a5cbb7d9d18ff4a6730 BNB0.00022787
0x63259d975c87c455a4a3ce1c3cf0ea75e1333691ddb38ac05d888f563d87887687251672021-05-10 17:03:1234 days 23 hrs ago0xdb293a08a4f9b5a1ac8cf51f6f76d9b6314851e4OUT 0xe686e7aaccd47c951f02c6a5cbb7d9d18ff4a6730 BNB0.0001534
0x16426e686866f9291ac4baa27ed90b411e8c26b27b357d81064b8e30747d2b8b87250472021-05-10 16:57:1234 days 23 hrs ago0xdb293a08a4f9b5a1ac8cf51f6f76d9b6314851e4OUT 0x34e18d89b43d0ef859896d54d024072785d8c48f0 BNB0.01208269
0x87154020c182443cbbddf311acac84adcc692cd9122dfa272d0996a418a4c07187235792021-05-10 15:43:4835 days 31 mins ago0xdb293a08a4f9b5a1ac8cf51f6f76d9b6314851e4OUT Contract Creation0 BNB0.01499061
0xca379975c7363b435048a81b6c2e19b924c659ec0b2f028231325a83c5b249f287232002021-05-10 15:24:5135 days 50 mins ago0xdb293a08a4f9b5a1ac8cf51f6f76d9b6314851e4OUT Contract Creation0 BNB0.01138995
0x4d84f286016cb35d6fefab7c67d101cc8c47927cf739b51499703b16114ec2e687231122021-05-10 15:20:2735 days 54 mins ago0xdb293a08a4f9b5a1ac8cf51f6f76d9b6314851e4OUT 0xdb73dde1867843fdca5244258f2fd4b6dc7b154e0.15 BNB0.172227
0xff47729dc54f79d53be9f166d6e49f4251e0bdb7def96f126a79ec31a8b1bb4987231072021-05-10 15:20:1235 days 55 mins ago0xdb293a08a4f9b5a1ac8cf51f6f76d9b6314851e4OUT 0xe686e7aaccd47c951f02c6a5cbb7d9d18ff4a6730 BNB0.00044186
0xa1ddd23f24c97d8c2ba62ff11a160985514196dfd9f6bcef0a12a21b184b028187229382021-05-10 15:11:4535 days 1 hr ago0xdb293a08a4f9b5a1ac8cf51f6f76d9b6314851e4OUT 0xe686e7aaccd47c951f02c6a5cbb7d9d18ff4a6730 BNB0.00119294
0x9f60b2450067afe167a2c45d26206af84ab8179e0712f1b819c1572ecca5102187229242021-05-10 15:11:0335 days 1 hr ago0xdb293a08a4f9b5a1ac8cf51f6f76d9b6314851e4OUT 0xe686e7aaccd47c951f02c6a5cbb7d9d18ff4a6730 BNB0.0002672
0xff6478adadfcb2c1ae1549babff643412159f54e4f73226da31a7398926b80d087229232021-05-10 15:11:0035 days 1 hr ago0xdb293a08a4f9b5a1ac8cf51f6f76d9b6314851e4OUT 0xe686e7aaccd47c951f02c6a5cbb7d9d18ff4a6730 BNB0.0002672
0xd7bbbbe8b7c331d3c266a7da1f524a4f8e7382d5dfae62a337abd9b684e8fe0687229202021-05-10 15:10:5135 days 1 hr ago0xdb293a08a4f9b5a1ac8cf51f6f76d9b6314851e4OUT 0xe686e7aaccd47c951f02c6a5cbb7d9d18ff4a6730 BNB0.00054635
0xda75a5a1d03b42aeb20348393f281f8c3fcf580cdde00fb52ca4a9bfbcd02e9187220892021-05-10 14:29:1835 days 1 hr ago0xdb293a08a4f9b5a1ac8cf51f6f76d9b6314851e4OUT Contract Creation10 wei0.00071933
0xd3be17245a71c815234c018f739c72f2f19e120fbc46a9166e5c764a828b9f1387208092021-05-10 13:25:1835 days 2 hrs ago0xaa25aa7a19f9c426e07dee59b12f944f4d9f1dd3 IN 0xdb293a08a4f9b5a1ac8cf51f6f76d9b6314851e46.25 BNB0.000378
0xd1503ca468a92622e9886c69a461afe436d7e04a9fcb27f7e9cbe8703286ffed87208002021-05-10 13:24:5135 days 2 hrs ago0xdb293a08a4f9b5a1ac8cf51f6f76d9b6314851e4OUT 0xe686e7aaccd47c951f02c6a5cbb7d9d18ff4a6730 BNB0.00209306
0xce5c2d7bc86a7222585a9d1e2403f1b8c904cfb53c280df0449b8a90c08b6f7087207732021-05-10 13:23:3035 days 2 hrs ago0xdb293a08a4f9b5a1ac8cf51f6f76d9b6314851e4OUT 0xe686e7aaccd47c951f02c6a5cbb7d9d18ff4a6730 BNB0.0002672
0x065bb8e213f75cff724644e19c2242738649cadb10a33d605018c0177f51364387207122021-05-10 13:20:2735 days 2 hrs ago0xdb293a08a4f9b5a1ac8cf51f6f76d9b6314851e4OUT 0x72d46f6d757247669564af7328348d9b8c65aafd0.0184 BNB0.02210241
0xd07b0068c883176cc89ca81ee0822ddd7f714bc3a1d91cd767a1d28c745987be87136322021-05-10 7:26:2735 days 8 hrs ago0xdb293a08a4f9b5a1ac8cf51f6f76d9b6314851e4OUT0x10ed43c718714eb63d5aa57b78b54704e256024e1 BNB0.00022576
0xce6ac25898897cbceeee3b991ecbadd069e1314712e6e685db4aaf9027fd1fe387136182021-05-10 7:25:4535 days 8 hrs ago0xdb293a08a4f9b5a1ac8cf51f6f76d9b6314851e4OUT0x10ed43c718714eb63d5aa57b78b54704e256024e1 BNB0.00022576
0xc32bab5ed310c6472deef9008c770aba9aeeec91277d5c32a4f8c694f8f84dde87135532021-05-10 7:22:3035 days 8 hrs ago0xdb293a08a4f9b5a1ac8cf51f6f76d9b6314851e4OUT0x10ed43c718714eb63d5aa57b78b54704e256024e1 BNB0.00022576
0x6dcf1ec19a7cf26ff1484b6df78d51beb4ecdbf9c530d084bf4a80c2d9e1af1887134952021-05-10 7:19:3635 days 8 hrs ago0xdb293a08a4f9b5a1ac8cf51f6f76d9b6314851e4OUT0x10ed43c718714eb63d5aa57b78b54704e256024e1 BNB0.00022576
[ Download CSV Export 
Parent Txn Hash Block From To Value
Loading

Contract Name:
0 BNB

Compiler Version
0

Optimization Enabled:
0 BNB

Other Settings:
-NA-
Block Transaction Gas Used Reward
Age Block Fee Address BC Fee Address Voting Power Jailed Incoming
Block Uncle Number Difficulty Gas Used Reward
Loading